Location: St. Louis
(38.6270°N, 90.1994°W)
Time: 15:25:14
(UTC-05:00)

ISS - Pass Details

Date: 09 November 2013
Orbit: 401 x 404 km, 51.6° (Epoch: 24 July)

Event Time Altitude Azimuth Distance (km) Brightness Sun altitude
Rises 05:42:32 0° 197° (SSW) 2,294 0.5 -10.9°
Reaches altitude 10° 05:44:59 10° 178° (S) 1,442 -0.3 -10.4°
Maximum altitude 05:47:21 19° 131° (SE) 1,027 -0.3 -10.0°
Drops below altitude 10° 05:49:44 10° 83° (E) 1,454 0.8 -9.5°
Sets 05:52:12 0° 65° (ENE) 2,321 1.4 -9.1°
